Location: Unspecified
(42.3650°N, 71.1030°W)
Time: 10:05:30
(UTC+00:00)

Courier 1B - Pass Details

Date: 27 June 2024
Orbit: 962 x 1209 km, 28.3° (Epoch: 13 July)

Event Time Altitude Azimuth Distance (km) Brightness Sun altitude
Rises 06:05:45 0° 251° (WSW) 3,776 - -21.9°
Reaches altitude 10° 06:08:55 10° 238° (WSW) 2,864 - -21.7°
Maximum altitude 06:14:21 24° 187° (S) 2,073 - -21.3°
Exits shadow 06:17:52 17° 150° (SSE) 2,488 9.3 -21.1°
Drops below altitude 10° 06:20:01 10° 136° (SE) 3,007 9.8 -21.0°
Sets 06:23:27 0° 124° (SE) 4,006 10.6 -20.7°
